THORAD AGENA D DEB, 4644

Orbit data source: Space-Track

THORAD AGENA D DEB, 4644 is space debris in SSO originally from a launch on Wed, 08 Apr 1970 UTC launched from the Air Force Western Test Range (AFWTR). Debris objects in space refer to the collection of defunct objects orbiting the Earth. Examples of debris include non-operational satellites, rocket bodies, and fragments generated from explosions, collisions, or faulty payload assembly.

Loading next visibility...
Identifier
4644, 1970-025AC
Orbit
SSO
Country
Flag of USUS
Related business
Manufacturer
Unknown
Mission
Spacecraft
Bus & Motor
Unknown
Mass
Unknown
Launch date (UTC)
1970-04-08 (56 years ago)
Launch vehicle
Unknown
Launch site
Air Force Western Test Range (AFWTR)
Object type
Payload
Rocket body
Debris
Shape & HBR
Unknown shape, 0.1 m
Radar Cross Section
Medium (>0.1 m² and <1 m²)

Expand to show TLE details & history
Last TLE update: 16 hours ago

TLE from 16 hours ago
0 THORAD AGENA D DEB
1 04644U 70025AC  26126.64926304  .00000462  00000-0  67142-3 0  9998
2 04644  99.5595  21.3673 0014814  37.7545 351.1040 13.60496575771536
Epoch: 2026-05-06T15:34Z
TLE epoch observation values (Epoch: 2026-05-06T15:34:56.326Z)
Latitude
28.43949°
Longitude
-82.08017°
Altitude
1,026.452 km
Speed
7.346 km/s
True Right ascension
01h 04m 38s
True Declination
28° 18' 03"
Sunlit
Object was in daylight at epoch
Visualization orbit readout
Latitude
Unknown
Longitude
Unknown
Altitude
Unknown
Speed
Unknown
Apparent Right ascension
Unknown
Apparent Declination
Unknown
Sunlit
N/A
Visualization observer readout
Local Sidereal Time
15:19:37
Azimuth
Unknown
Elevation
Unknown
Doppler factor
Unknown
Orbital elements
Apogee altitude
1,042.144 km
Perigee altitude
1,020.192 km
Semi-major axis
7,409.305 km
Eccentricity
0.00148
Inclination
99.5595°
RAAN
21.3673°
Arg. of periapsis
37.7545°
True anomaly
351.0777°
Mean anomaly
351.104°
Eccentric anomaly
351.09086°
Mean motion
3.40312 °/min
Orbital period
105.79 mins
BSTAR
0.00067142
Loading maneuver chart data...
Computing Atmospheric mass density...

Documentation

Showing up to 5 results
|